Medicine Lodge, KS

8:44 PM CDT on September 25, 2016 (GMT -0500)
Medicine Lodge

Weather History for KP28 - June, 2013

Change the Weather History Date:

Tuesday, June 18, 2013

  Actual Average Record
Temperature  
Mean Temperature 76 °F 78 °F  
Max Temperature 90 °F 90 °F 108 °F (1905)
Min Temperature 62 °F 65 °F 49 °F (1912)
Degree Days  
Heating Degree Days 0 0  
Month to date heating degree days 4 0  
Since 1 June heating degree days 4 0  
Since 1 July heating degree days 4523 4455  
Cooling Degree Days 11 13  
Month to date cooling degree days 179 183  
Year to date cooling degree days 322 339  
Since 1 June cooling degree days 179 183  
Growing Degree Days 26 (Base 50)    
Moisture  
Dew Point 60 °F    
Average Humidity 64    
Maximum Humidity 100    
Minimum Humidity 28    
Precipitation  
Precipitation 0.00 in 0.14 in 1.84 in (1921)
Month to date precipitation 1.68 2.70  
Year to date precipitation 12.03 12.44  
Snow  
Snow 0.00 in 0.00 in - ()
Month to date snowfall 0.0 0.0  
Since 1 June snowfall 0.0 0.0  
Since 1 July snowfall 25.0 8.5  
Snow Depth 0.00 in    
Sea Level Pressure  
Sea Level Pressure 29.97 in    
Wind  
Wind Speed 4 mph (SE)    
Max Wind Speed 18 mph    
Max Gust Speed 25 mph    
T = Trace of Precipitation, MM = Missing Value Source: NWS Daily Summary

Daily Weather History Graph

Daily Weather History Graph

Search for Another Location

Airport or City:

Trip Planner

Search our weather history database for the weather conditions in past years. The results will help you decide how hot, cold, wet, or windy it might be!

Date:

Astronomy

Jun. 18, 2013 Rise Set
Actual Time 6:13 AM CDT 8:57 PM CDT
Civil Twilight 5:42 AM CDT 9:28 PM CDT
Nautical Twilight 5:03 AM CDT 10:07 PM CDT
Astronomical Twilight 4:20 AM CDT 10:50 PM CDT
Moon 3:48 PM CDT (6/18) 2:17 AM CDT (6/18)
Length of Visible Light 15h 45m
Length of Day
14h 43m
Waxing Gibbous, 71% of the Moon is Illuminated
Jun 18
Waxing Gibbous
Jun 23
Full
Jun 29
Last Quarter
Jul 8
New
Jul 15
First Quarter

Hourly Weather History & Observations

Time (CDT) Temp. Heat Index Dew Point Humidity Pressure Visibility Wind Dir Wind Speed Gust Speed Precip Events Conditions
12:56 AM 66.9 °F - 64.0 °F 90% 30.01 in - Calm Calm - N/A   Unknown
1:56 AM 66.0 °F - 64.0 °F 93% 30.00 in - Calm Calm - N/A   Unknown
2:56 AM 66.9 °F - 64.0 °F 90% 29.99 in - Calm Calm - N/A   Unknown
3:56 AM 64.0 °F - 63.0 °F 96% 29.98 in - Calm Calm - N/A   Unknown
4:56 AM 64.0 °F - 62.1 °F 93% 30.00 in - Calm Calm - N/A   Unknown
5:56 AM 64.0 °F - 62.1 °F 93% 30.01 in - Calm Calm - N/A   Unknown
6:56 AM 63.0 °F - 61.0 °F 93% 30.02 in - North 3.5 mph - N/A   Unknown
7:56 AM 64.9 °F - 64.0 °F 97% 30.03 in - North 3.5 mph - N/A   Unknown
8:56 AM 73.0 °F - 66.9 °F 81% 30.02 in - NNW 3.5 mph - N/A   Unknown
9:56 AM 77.0 °F - 64.9 °F 66% 30.04 in - Variable 3.5 mph - N/A   Unknown
10:56 AM 81.0 °F 81.7 °F 61.0 °F 50% 30.02 in - Variable 3.5 mph - N/A   Unknown
11:56 AM 82.9 °F 83.2 °F 60.1 °F 46% 30.01 in - Variable 3.5 mph - N/A   Unknown
12:56 PM 84.0 °F 84.0 °F 60.1 °F 44% 29.99 in - Variable 5.8 mph - N/A   Unknown
1:56 PM 87.1 °F 85.1 °F 54.0 °F 32% 29.98 in - SE 5.8 mph - N/A   Unknown
2:56 PM 88.0 °F 86.9 °F 57.9 °F 36% 29.95 in - Calm Calm - N/A   Unknown
3:56 PM 88.0 °F 86.5 °F 55.9 °F 34% 29.93 in - South 4.6 mph - N/A   Unknown
4:56 PM 89.1 °F 86.9 °F 54.0 °F 30% 29.90 in - SSE 5.8 mph - N/A   Unknown
5:56 PM 88.0 °F - 51.1 °F 28% 29.89 in - South 9.2 mph - N/A   Unknown
6:56 PM 88.0 °F - 50.0 °F 27% 29.88 in - Variable 5.8 mph - N/A   Unknown
7:56 PM 86.0 °F 84.5 °F 55.0 °F 35% 29.90 in - SSE 5.8 mph - N/A   Unknown
8:56 PM 81.0 °F 81.3 °F 59.0 °F 47% 29.91 in - SSE 4.6 mph - N/A   Unknown
9:56 PM 80.1 °F 80.9 °F 60.1 °F 50% 29.91 in - SE 6.9 mph - N/A   Unknown
10:56 PM 78.1 °F - 62.1 °F 58% 29.93 in - SSE 10.4 mph 17.3 mph N/A   Unknown
11:56 PM 75.9 °F - 63.0 °F 64% 29.94 in - East 8.1 mph - N/A   Unknown